Regional Weather Roundup
Issued by NWS

Home | Current Version | Previous Version | Text Only | Print | Product List | Glossary On
Versions: 1 2 3 4 5 6 7 8 9 10 11 12 13 14 15 16 17 18 19 20 21 22 23 24 25 26 27 28 29 30 31 32 33 34 35 36 37 38 39 40 41 42 43 44 45 46 47 48 49 50
000
ASCA42 TJSJ 260410
RWRPR
PUERTO RICO/U.S. VIRGIN ISLANDS HOURLY WEATHER ROUNDUP
NATIONAL WEATHER SERVICE SAN JUAN PR
1200 AM AST FRI MAY 26 2017

PRZ001>002-007>008-010-260500-
PUERTO RICO

CITY           SKY/WX    TMP DP  RH WIND       PRES   REMARKS
SAN JUAN LMM   PTCLDY    81  70  69 E8        30.06F
CEIBA          CLEAR     81  72  74 E7        30.08F
$$

VIZ001>002-260500-
U.S. VIRGIN ISLANDS

CITY           SKY/WX    TMP DP  RH WIND       PRES   REMARKS
CHARLOTTE AMA  CLOUDY    82  72  69 NE9       30.05F
CHRISTIANSTED  PTCLDY    79  72  78 NE9       30.05F
$$

HOURLY WEATHER ROUNDUP FOR THE NEWS MEDIA

CITY           SKY/WX    TMP DP  RH WIND       PRES   REMARKS
ORLANDO        CLEAR     71  59  65 W8        29.97R
NEW YORK       TSTM      58  58 100 N12       29.46F FOG
NEWARK         TSTM      56  56 100 NE16      29.48F
CHICAGO        PTCLDY    53  49  86 CALM      29.77R
HARTFORD       TSTM      56  55  97 NE13G18   29.53F VSB 1/2
BOSTON         DRIZZLE   51  51 100 N17       29.60F FOG
DALLAS         PTCLDY    81  58  45 S21G29    29.65R
PHILADELPHIA   CLOUDY    59  56  89 S5        29.49R
LOS ANGELES    MOCLDY    61  52  72 W10       29.88R
WASHINGTON DC  PTCLDY    56  55  97 CALM      29.57R


USA.gov is the U.S. government's official web portal to all federal, state and local government web resources and services.